Terminal Aerodrome Forecast
Issued by NWS Jackson, KY

Home | Current Version | Previous Version | Text Only | Print | Product List | Glossary On
Versions: 1 2 3 4 5 6 7 8 9 10 11 12 13 14 15 16 17 18 19 20 21 22 23 24 25 26
000
FTUS43 KJKL 190400 AAA
TAFJKL
TAF AMD
KJKL 190408Z 1904/1924 00000KT 1/4SM FG VV002
     FM191100 VRB03KT 2SM BR OVC004
     FM191500 VRB03KT P6SM OVC015
     FM191600 00000KT P6SM OVC025
     FM191700 00000KT P6SM VCTS SCT025CB BKN050=

USA.gov is the U.S. government's official web portal to all federal, state and local government web resources and services.